Location: Newark
(51.2625°N, 13.3939°E)
Time: 08:14:25
(UTC+00:00)

Transit 2A Rocket - Pass Details

Date: 21 January 2021
Orbit: 594 x 909 km, 66.7° (Epoch: 24 February)

Event Time Altitude Azimuth Distance (km) Brightness Sun altitude
Rises 18:18:28 0° 322° (NW) 3,025 8.6 -24.7°
Reaches altitude 10° 18:21:23 10° 339° (NNW) 2,057 7.4 -25.1°
Enters shadow 18:23:09 17° 358° (N) 1,619 6.7 -25.4°
